Weather History for Oxford, NC

Change the Weather History Date:

Monday, September 30, 2013

  Actual Average (KTDF) Record (KTDF)
Temperature  
Mean Temperature 63 °F -  
Max Temperature 74 °F 74 °F 89 °F (1973)
Min Temperature 52 °F 49 °F 34 °F (1967)
Degree Days  
Heating Degree Days 2    
Growing Degree Days 13 (Base 50)    
Moisture  
Dew Point 53 °F    
Average Humidity 78    
Maximum Humidity 97    
Minimum Humidity 42    
Precipitation  
Precipitation 0.00 in - - ()
Sea Level Pressure  
Sea Level Pressure 30.07 in    
Wind  
Wind Speed 1 mph (NE)    
Max Wind Speed 6 mph    
Max Gust Speed -    
Visibility 7 miles    
Events Fog    
Averages and records for this station are not official NWS values.
T = Trace of Precipitation, MM = Missing Value Source: NWS Daily Summary

Daily Weather History Graph

Daily Weather History Graph

Search for Another Location

Airport:

Trip Planner

Search our weather history database for the weather conditions in past years. The results will help you decide how hot, cold, wet, or windy it might be!

Date:

Astronomy

Sep. 30, 2013 Rise Set
Actual Time 7:08 AM EDT 6:58 PM EDT
Civil Twilight 6:42 AM EDT 7:24 PM EDT
Nautical Twilight 6:13 AM EDT 7:54 PM EDT
Astronomical Twilight 5:43 AM EDT 8:24 PM EDT
Moon 2:50 AM EDT (9/30) 4:22 PM EDT (9/30)
Length of Visible Light 12h 41m
Length of Day
11h 50m
Waning Crescent, 19% of the Moon is Illuminated
Sep 30
Waning Crescent
Oct 4
New
Oct 11
First Quarter
Oct 18
Full
Oct 26
Last Quarter

Hourly Weather History & Observations

Time (EDT) Temp. Dew Point Humidity Pressure Visibility Wind Dir Wind Speed Gust Speed Precip Events Conditions
12:15 AM 55.4 °F 53.6 °F 94% 30.07 in 10.0 mi Calm Calm - N/A   Clear
12:35 AM 54.5 °F 52.9 °F 94% 30.07 in 7.0 mi Calm Calm - N/A   Clear
12:55 AM 54.5 °F 53.1 °F 95% 30.07 in 10.0 mi Calm Calm - N/A   Clear
1:15 AM 53.8 °F 52.3 °F 95% 30.07 in 10.0 mi Calm Calm - N/A   Clear
1:35 AM 53.8 °F 52.3 °F 95% 30.07 in 7.0 mi Calm Calm - N/A   Clear
1:55 AM 53.8 °F 52.3 °F 95% 30.07 in 10.0 mi Calm Calm - N/A   Clear
2:15 AM 53.1 °F 51.8 °F 95% 30.07 in 10.0 mi Calm Calm - N/A   Clear
2:35 AM 52.7 °F 51.4 °F 95% 30.07 in 2.5 mi Calm Calm - N/A   Clear
2:55 AM 53.2 °F 52.2 °F 96% 30.07 in 1.2 mi Calm Calm - N/A   Mist
3:15 AM 52.9 °F 51.8 °F 96% 30.07 in 2.0 mi Calm Calm - N/A   Clear
3:35 AM 52.7 °F 51.3 °F 95% 30.06 in 5.0 mi Calm Calm - N/A   Clear
3:55 AM 53.2 °F 52.0 °F 95% 30.07 in 0.8 mi Calm Calm - N/A   Mist
4:15 AM 53.2 °F 52.2 °F 96% 30.06 in 1.0 mi Calm Calm - N/A   Mostly Cloudy
4:35 AM 52.5 °F 51.3 °F 95% 30.06 in 1.5 mi Calm Calm - N/A   Overcast
4:55 AM 52.3 °F 51.3 °F 96% 30.06 in 0.5 mi Calm Calm - N/A Fog Fog
5:15 AM 52.7 °F 51.6 °F 96% 30.06 in 0.5 mi Calm Calm - N/A Fog Fog
5:35 AM 52.5 °F 51.4 °F 96% 30.07 in 0.2 mi Calm Calm - N/A Fog Fog
5:55 AM 52.7 °F 51.6 °F 96% 30.07 in 0.2 mi Calm Calm - N/A Fog Fog
6:15 AM 52.0 °F 50.9 °F 96% 30.08 in 0.5 mi North 3.5 mph - N/A Fog Fog
6:35 AM 52.7 °F 51.4 °F 95% 30.08 in 0.2 mi Calm Calm - N/A Fog Fog
6:55 AM 53.4 °F 52.3 °F 96% 30.09 in 0.2 mi Calm Calm - N/A Fog Fog
7:15 AM 53.6 °F 52.7 °F 97% 30.09 in 0.2 mi Calm Calm - N/A Fog Fog
7:35 AM 53.1 °F 52.0 °F 96% 30.09 in 0.2 mi Calm Calm - N/A Fog Fog
7:55 AM 53.6 °F 52.3 °F 95% 30.10 in 0.8 mi Calm Calm - N/A   Overcast
8:15 AM 54.0 °F 52.9 °F 96% 30.11 in 0.5 mi Calm Calm - N/A Fog Fog
8:35 AM 54.7 °F 53.6 °F 96% 30.11 in 0.2 mi Calm Calm - N/A Fog Fog
8:55 AM 55.8 °F 54.7 °F 96% 30.11 in 0.2 mi Calm Calm - N/A Fog Fog
9:15 AM 56.3 °F 55.2 °F 96% 30.11 in 0.2 mi Calm Calm - N/A Fog Fog
9:35 AM 57.0 °F 55.9 °F 96% 30.11 in 0.2 mi Calm Calm - N/A Fog Fog
9:55 AM 57.4 °F 56.3 °F 96% 30.11 in 0.2 mi Calm Calm - N/A Fog Fog
10:15 AM 58.1 °F 57.0 °F 96% 30.11 in 0.8 mi Calm Calm - N/A   Overcast
10:35 AM 60.1 °F 59.0 °F 96% 30.11 in 5.0 mi Calm Calm - N/A   Overcast
10:55 AM 60.4 °F 59.4 °F 96% 30.11 in 10.0 mi Calm Calm - N/A   Mostly Cloudy
11:15 AM 61.2 °F 60.1 °F 96% 30.11 in 10.0 mi Calm Calm - N/A   Scattered Clouds
11:35 AM 62.1 °F 60.1 °F 93% 30.10 in 10.0 mi Calm Calm - N/A   Clear
11:55 AM 67.6 °F 55.8 °F 66% 30.09 in 10.0 mi Calm Calm - N/A   Clear
12:15 PM 68.9 °F 54.7 °F 60% 30.09 in 10.0 mi ENE 4.6 mph - N/A   Clear
12:35 PM 69.8 °F 51.6 °F 52% 30.08 in 10.0 mi North 3.5 mph - N/A   Scattered Clouds
12:55 PM 70.3 °F 50.9 °F 50% 30.07 in 10.0 mi Calm Calm - N/A   Scattered Clouds
1:15 PM 70.2 °F 49.8 °F 48% 30.07 in 10.0 mi Calm Calm - N/A   Clear
1:35 PM 70.3 °F 49.8 °F 48% 30.06 in 10.0 mi North 3.5 mph - N/A   Scattered Clouds
1:55 PM 71.2 °F 49.8 °F 47% 30.05 in 10.0 mi Calm Calm - N/A   Mostly Cloudy
2:15 PM 72.3 °F 50.4 °F 46% 30.04 in 10.0 mi ESE 3.5 mph - N/A   Overcast
2:35 PM 72.9 °F 50.2 °F 45% 30.03 in 10.0 mi Calm Calm - N/A   Mostly Cloudy
2:55 PM 72.0 °F 49.6 °F 45% 30.03 in 10.0 mi Calm Calm - N/A   Scattered Clouds
3:15 PM 72.9 °F 49.6 °F 44% 30.02 in 10.0 mi North 4.6 mph - N/A   Scattered Clouds
3:35 PM 72.5 °F 50.5 °F 46% 30.02 in 10.0 mi Calm Calm - N/A   Mostly Cloudy
3:55 PM 74.1 °F 50.2 °F 43% 30.02 in 10.0 mi ENE 5.8 mph - N/A   Mostly Cloudy
4:15 PM 73.6 °F 49.6 °F 43% 30.01 in 10.0 mi ENE 4.6 mph - N/A   Overcast
4:35 PM 73.6 °F 50.2 °F 44% 30.01 in 10.0 mi NE 3.5 mph - N/A   Scattered Clouds
4:55 PM 74.3 °F 50.2 °F 43% 30.01 in 10.0 mi East 5.8 mph - N/A   Scattered Clouds
5:15 PM 74.1 °F 49.5 °F 42% 30.02 in 10.0 mi NNE 3.5 mph - N/A   Mostly Cloudy
5:35 PM 73.8 °F 50.0 °F 43% 30.02 in 10.0 mi East 4.6 mph - N/A   Mostly Cloudy
5:55 PM 73.4 °F 50.4 °F 44% 30.02 in 10.0 mi NE 4.6 mph - N/A   Mostly Cloudy
6:15 PM 71.8 °F 49.8 °F 46% 30.03 in 10.0 mi ENE 3.5 mph - N/A   Mostly Cloudy
6:35 PM 69.8 °F 51.4 °F 52% 30.03 in 10.0 mi Calm Calm - N/A   Clear
6:55 PM 67.8 °F 52.2 °F 57% 30.04 in 10.0 mi Calm Calm - N/A   Clear
7:15 PM 66.2 °F 52.7 °F 62% 30.04 in 10.0 mi Calm Calm - N/A   Clear
7:35 PM 63.7 °F 53.1 °F 68% 30.04 in 10.0 mi Calm Calm - N/A   Clear
7:55 PM 63.3 °F 54.5 °F 73% 30.05 in 10.0 mi Calm Calm - N/A   Clear
8:15 PM 61.9 °F 54.9 °F 78% 30.05 in 10.0 mi Calm Calm - N/A   Clear
8:35 PM 61.7 °F 54.5 °F 77% 30.06 in 10.0 mi Calm Calm - N/A   Clear
8:55 PM 61.2 °F 53.8 °F 77% 30.06 in 10.0 mi Calm Calm - N/A   Clear
9:15 PM 58.1 °F 54.0 °F 86% 30.07 in 10.0 mi Calm Calm - N/A   Clear
9:35 PM 59.0 °F 55.4 °F 88% 30.07 in 10.0 mi Calm Calm - N/A   Clear
9:55 PM 58.8 °F 54.9 °F 87% 30.07 in 10.0 mi Calm Calm - N/A   Clear
10:15 PM 58.5 °F 54.1 °F 86% 30.08 in 10.0 mi Calm Calm - N/A   Clear
10:35 PM 58.5 °F 53.6 °F 84% 30.08 in 10.0 mi Calm Calm - N/A   Clear
10:55 PM 58.1 °F 53.6 °F 85% 30.08 in 10.0 mi Calm Calm - N/A   Clear
11:15 PM 56.3 °F 53.4 °F 90% 30.08 in 10.0 mi South 3.5 mph - N/A   Clear
11:35 PM 58.6 °F 52.9 °F 81% 30.08 in 10.0 mi Calm Calm - N/A   Scattered Clouds
11:55 PM 59.7 °F 52.5 °F 77% 30.08 in 10.0 mi SW 3.5 mph - N/A   Scattered Clouds